{"data":{"norad_id":65413,"epoch":"2026-09-20T21:57:02.653056Z","epoch_age_seconds":78860,"freshness":"FRESH","line1":"1 65413U 25192K   26263.91461404  .00007387  00000+0  22954-3 0  9995","line2":"2 65413  53.1593  43.4496 0001278  73.4134 286.7009 15.34401568 59303","mean_motion":15.34401568,"eccentricity":0.0001278,"inclination_deg":53.1593,"raan_deg":43.4496,"arg_perigee_deg":73.4134,"mean_anomaly_deg":286.7009,"bstar":0.00022954,"rev_number":5930,"period_min":93.847662178614,"perigee_km":461.82432099754,"apogee_km":463.57283857173,"semimajor_km":6840.8355797846,"source":"CELESTRAK","updated_at":"2026-09-21T09:00:35.604261Z"}}